Погода в Герасимовке

Россия / Белгородская область     50°02′34″N   38°08′22″E
темп.,
°C
ветер,
м/с
пор.,
м/с
влажн.,
%
обл.,
%
осадки,
мм/ч
давл.,
гПа
погр.,
м
24 января, пн
пн2400:00−5ссв81692100 0.1 1023578
03:00−5св81491100 0.2 1023514
06:00−5св71395100 0.4 1023497
09:00−6св71392100 0.9 1025508
12:00−6св61291100 0.0 1025551
15:00−6св61091100 0.0 1025504
18:00−8св5109399 0.0 1026307
21:00−11св379684 0.1 1026124
25 января, вт
вт2500:00−11св369697 0.1 1026125
03:00−11св2596100 0.1 1025137
06:00−10св2496100 0.3 1024142
09:00−9св2396100 0.3 1024119
12:00−7юв2292100 0.1 1024222
15:00−6сз1192100 0.1 1022164
18:00−11в1199100 0.0 102210
21:00−12ююз0099100 0.1 102210
26 января, ср
ср2600:00−11юз2297100 0.1 102122
03:00−7зюз2596100 0.3 1020160
06:00−6юз1397100 0.1 1019116
09:00−9ю2398100 0.1 102061
12:00−7ююз3595100 0.0 1020180
15:00−6ююз249575 0.1 1019243
18:00−12ююз229985 0.0 102022
21:00−11ююз229998 0.1 102135
27 января, чт
чт2700:00−11юз119897 0.1 102121
03:00−13ююз119984 0.1 102117
06:00−15ю1110098 0.0 102114
09:00−14ююв1110099 0.1 102129
12:00−9зюз119494 0.1 1021142
15:00−8юз239424 0.1 1019148
18:00−14ю229966 0.0 10209
21:00−15ююз2210088 0.0 101911
28 января, пт
пт2800:00−16ю22100100 0.0 101922
03:00−15ююз3610099 0.1 101872
06:00−14ю4109898 0.0 1016138
09:00−10ю51295100 0.1 1015274
12:00−5ю71495100 0.4 1012461
15:00−1ююз71597100 1.8 1010877
18:000юз71397100 1.1 1008723
21:000юз61197100 1.5 1008624